timestamp,surface_pressure_avg,surface_temp_avg,battery_voltage,lat,long
2022-12-30 00:09:00+00:00,242.6664,3.9,12.57,47.84626,-54.09684
2022-12-30 00:19:00+00:00,240.1048,3.97,12.57,47.84626,-54.09684
2022-12-30 00:29:00+00:00,241.2581,4.0,12.57,47.84626,-54.09684
2022-12-30 00:39:00+00:00,248.3931,4.0,12.57,47.84626,-54.09684
2022-12-30 00:49:00+00:00,246.5514,3.99,12.57,47.84626,-54.09684
2022-12-30 00:59:00+00:00,240.0014,4.0,12.57,47.84626,-54.09684
2022-12-30 01:09:00+00:00,239.7697,4.0,12.57,47.84626,-54.09684
2022-12-30 01:19:00+00:00,246.2914,4.0,12.57,47.84626,-54.09684
2022-12-30 01:29:00+00:00,249.0781,3.95,12.57,47.84626,-54.09684
2022-12-30 01:39:00+00:00,251.4848,3.9,12.57,47.84626,-54.09684
2022-12-30 01:49:00+00:00,258.3698,3.89,12.57,47.84626,-54.09684
2022-12-30 01:59:00+00:00,265.4832,3.8,12.57,47.84626,-54.09684
2022-12-30 02:09:00+00:00,267.3514,3.8,12.57,47.84626,-54.09684
2022-12-30 02:19:00+00:00,270.4981,3.77,12.57,47.84626,-54.09684
2022-12-30 02:29:00+00:00,275.8914,3.2,12.57,47.84626,-54.09684
2022-12-30 02:39:00+00:00,283.2764,3.7,12.57,47.84626,-54.09684
2022-12-30 02:49:00+00:00,288.1597,3.58,12.57,47.84626,-54.09684
2022-12-30 02:59:00+00:00,293.3097,3.4,12.57,47.84626,-54.09684
2022-12-30 03:09:00+00:00,295.9147,3.33,12.57,47.84626,-54.09684
2022-12-30 03:19:00+00:00,301.188,3.3,12.57,47.84626,-54.09684
2022-12-30 03:29:00+00:00,310.2363,3.29,12.57,47.84626,-54.09684
2022-12-30 03:39:00+00:00,318.7613,3.36,12.57,47.84626,-54.09684
2022-12-30 03:49:00+00:00,325.6096,3.39,12.57,47.84626,-54.09684
2022-12-30 03:59:00+00:00,333.9463,3.39,12.57,47.84626,-54.09684
2022-12-30 04:09:00+00:00,341.5529,3.1,12.57,47.84626,-54.09684
2022-12-30 04:19:01+00:00,342.908,2.7,12.57,47.84626,-54.09684
2022-12-30 04:29:01+00:00,341.2629,2.96,12.57,47.84626,-54.09684
2022-12-30 04:39:01+00:00,342.7030000000001,3.25,12.57,47.84626,-54.09684
2022-12-30 04:49:01+00:00,343.5414,3.3,12.57,47.84626,-54.09684
2022-12-30 04:59:01+00:00,339.8163,3.5,12.57,47.84626,-54.09684
2022-12-30 05:09:01+00:00,341.0197,3.54,12.57,47.84626,-54.09684
2022-12-30 05:19:01+00:00,344.0596,3.63,12.57,47.84626,-54.09684
2022-12-30 05:29:01+00:00,344.1096,3.6,12.57,47.84626,-54.09684
2022-12-30 05:39:01+00:00,342.4146,3.5,12.57,47.84626,-54.09684
2022-12-30 05:49:01+00:00,341.5131,3.62,12.57,47.84626,-54.09684
2022-12-30 05:59:01+00:00,340.4564,3.75,12.57,47.84626,-54.09684
2022-12-30 06:09:01+00:00,336.4996,3.8,12.57,47.84626,-54.09684
2022-12-30 06:19:00+00:00,337.2646,3.8,12.57,47.84626,-54.09684
2022-12-30 06:29:00+00:00,339.7146,3.8,12.57,47.84626,-54.09684
2022-12-30 06:39:00+00:00,337.0146,3.8,12.57,47.84626,-54.09684
2022-12-30 06:49:00+00:00,333.0329,3.8,12.57,47.84626,-54.09684
2022-12-30 06:59:00+00:00,332.5446,3.88,12.57,47.84626,-54.09684
2022-12-30 07:09:00+00:00,326.6296,3.9,12.57,47.84626,-54.09684
2022-12-30 07:19:01+00:00,318.4014,3.9,12.49,47.84626,-54.09684
2022-12-30 07:29:01+00:00,310.2596,3.9,12.49,47.84626,-54.09684
2022-12-30 07:39:01+00:00,302.3881,3.9,12.49,47.84626,-54.09684
2022-12-30 07:49:01+00:00,292.0179,3.9,12.49,47.84626,-54.09684
2022-12-30 07:59:01+00:00,286.8597,3.85,12.49,47.84626,-54.09684
2022-12-30 08:09:01+00:00,284.123,3.6,12.49,47.84626,-54.09684
2022-12-30 08:19:00+00:00,274.8614,3.4,12.49,47.84626,-54.09684
2022-12-30 08:29:00+00:00,263.5164,3.3,12.49,47.84626,-54.09684
2022-12-30 08:39:00+00:00,256.8964,3.2,12.49,47.84626,-54.09684
2022-12-30 08:49:00+00:00,251.2381,3.2,12.49,47.84626,-54.09684
2022-12-30 08:59:00+00:00,241.9748,3.2,12.49,47.84626,-54.09684
2022-12-30 09:09:00+00:00,232.703,3.27,12.49,47.84626,-54.09684
2022-12-30 09:19:00+00:00,222.6664,3.3,12.49,47.84626,-54.09684
2022-12-30 09:29:00+00:00,216.3748,3.3,12.49,47.84626,-54.09684
2022-12-30 09:39:00+00:00,214.5465,3.3,12.49,47.84626,-54.09684
2022-12-30 09:49:00+00:00,211.3314,3.3,12.49,47.84626,-54.09684
2022-12-30 09:59:00+00:00,211.5164,3.3,12.49,47.84626,-54.09684
2022-12-30 10:09:00+00:00,212.9264,3.35,12.49,47.84626,-54.09684
2022-12-30 10:19:01+00:00,214.6131,3.4,12.49,47.84626,-54.09684
2022-12-30 10:29:01+00:00,214.4898,3.4,12.49,47.84626,-54.09684
2022-12-30 10:39:01+00:00,214.2865,3.4,12.49,47.84626,-54.09684
2022-12-30 10:49:01+00:00,216.6181,3.3,12.49,47.84626,-54.09684
2022-12-30 10:59:01+00:00,218.9165,3.2,12.49,47.84626,-54.09684
2022-12-30 11:09:01+00:00,217.9181,3.0,12.49,47.84626,-54.09684
2022-12-30 11:19:00+00:00,212.8148,2.9,12.49,47.84626,-54.09684
2022-12-30 11:29:00+00:00,214.9531,2.8,12.49,47.84626,-54.09684
2022-12-30 11:39:00+00:00,219.8048,2.8,12.49,47.84626,-54.09684
2022-12-30 11:49:00+00:00,219.4848,2.89,12.49,47.84626,-54.09684
2022-12-30 11:59:00+00:00,218.7164,2.9,12.49,47.84626,-54.09684
2022-12-30 12:09:00+00:00,221.2964,3.0,12.49,47.84626,-54.09684
2022-12-30 12:19:00+00:00,224.6731,3.09,13.53,47.84626,-54.09684
2022-12-30 12:29:00+00:00,226.6248,3.2,13.53,47.84626,-54.09684
2022-12-30 12:39:00+00:00,223.7964,3.3,13.53,47.84626,-54.09684
2022-12-30 12:49:00+00:00,220.5032,3.3,13.53,47.84626,-54.09684
2022-12-30 12:59:00+00:00,224.9948,3.3,13.53,47.84626,-54.09684
2022-12-30 13:09:00+00:00,228.6514,3.3,13.53,47.84626,-54.09684
2022-12-30 13:19:01+00:00,224.4614,3.3,12.97,47.84626,-54.09684
2022-12-30 13:29:01+00:00,226.5131,3.3,12.97,47.84626,-54.09684
2022-12-30 13:39:01+00:00,235.0264,3.3,12.97,47.84626,-54.09684
2022-12-30 13:49:01+00:00,239.8698,3.3,12.97,47.84626,-54.09684
2022-12-30 13:59:01+00:00,241.693,3.4,12.97,47.84626,-54.09684
2022-12-30 14:09:01+00:00,246.7197,3.48,12.97,47.84626,-54.09684
2022-12-30 14:19:00+00:00,254.8848,3.67,14.08,47.84626,-54.09684
2022-12-30 14:29:00+00:00,260.0214,3.85,14.08,47.84626,-54.09684
2022-12-30 14:39:00+00:00,258.5098,3.92,14.08,47.84626,-54.09684
2022-12-30 14:49:00+00:00,263.6014,4.0,14.08,47.84626,-54.09684
2022-12-30 14:59:00+00:00,275.6998,4.0,14.08,47.84626,-54.09684
2022-12-30 15:09:00+00:00,281.4097,4.0,14.08,47.84626,-54.09684
2022-12-30 15:19:00+00:00,283.973,4.0,13.29,47.84626,-54.09684
2022-12-30 15:29:00+00:00,289.5181,4.0,13.29,47.84626,-54.09684
2022-12-30 15:39:00+00:00,298.843,4.02,13.29,47.84626,-54.09684
2022-12-30 15:49:00+00:00,307.1763,4.09,13.29,47.84626,-54.09684
2022-12-30 15:59:00+00:00,309.0812,4.1,13.29,47.84626,-54.09684
2022-12-30 16:09:00+00:00,313.2964,4.1,13.29,47.84626,-54.09684
2022-12-30 16:19:01+00:00,320.203,4.1,13.6,47.84626,-54.09684
2022-12-30 16:29:01+00:00,327.958,4.1,13.6,47.84626,-54.09684
2022-12-30 16:39:01+00:00,326.7764,4.1,13.6,47.84626,-54.09684
2022-12-30 16:49:01+00:00,326.8864,4.1,13.6,47.84626,-54.09684
2022-12-30 16:59:01+00:00,332.3362,4.1,13.6,47.84626,-54.09684
2022-12-30 17:09:01+00:00,332.5946,4.1,13.6,47.84626,-54.09684
2022-12-30 17:19:00+00:00,329.093,4.1,13.53,47.84626,-54.09684
2022-12-30 17:29:00+00:00,329.6513,4.1,13.53,47.84626,-54.09684
2022-12-30 17:39:00+00:00,335.3529,4.1,13.53,47.84626,-54.09684
2022-12-30 17:49:00+00:00,334.6262,4.1,13.53,47.84626,-54.09684
2022-12-30 17:59:00+00:00,331.6364,4.1,13.53,47.84626,-54.09684
2022-12-30 18:09:00+00:00,333.4963,4.1,13.53,47.84626,-54.09684
2022-12-30 18:19:00+00:00,333.0996,4.1,13.53,47.84626,-54.09684
2022-12-30 18:29:00+00:00,328.2679,4.1,13.53,47.84626,-54.09684
2022-12-30 18:39:00+00:00,327.3013,4.12,13.53,47.84626,-54.09684
2022-12-30 18:49:00+00:00,333.9980000000001,4.12,13.53,47.84626,-54.09684
2022-12-30 18:59:00+00:00,330.3247,4.13,13.53,47.84626,-54.09684
2022-12-30 19:09:00+00:00,318.3364,4.1,13.53,47.84626,-54.09684
2022-12-30 19:19:00+00:00,316.0913,4.1,12.81,47.84626,-54.09684
2022-12-30 19:29:00+00:00,317.9931,4.1,12.81,47.84626,-54.09684
2022-12-30 19:39:00+00:00,311.728,4.1,12.81,47.84626,-54.09684
2022-12-30 19:49:00+00:00,304.5213,4.1,12.81,47.84626,-54.09684
2022-12-30 19:59:00+00:00,300.468,4.12,12.81,47.84626,-54.09684
2022-12-30 20:09:00+00:00,293.1163,4.14,12.81,47.84626,-54.09684
2022-12-30 20:19:00+00:00,283.9997,4.15,12.65,47.84626,-54.09684
2022-12-30 20:29:00+00:00,276.6847,4.18,12.65,47.84626,-54.09684
2022-12-30 20:39:00+00:00,269.3114,4.18,12.65,47.84626,-54.09684
2022-12-30 20:49:00+00:00,261.4931,4.19,12.65,47.84626,-54.09684
2022-12-30 20:59:00+00:00,252.4064,4.19,12.65,47.84626,-54.09684
2022-12-30 21:09:00+00:00,246.3231,4.19,12.65,47.84626,-54.09684
2022-12-30 21:19:00+00:00,240.9164,4.19,12.65,47.84626,-54.09684
2022-12-30 21:29:00+00:00,232.1048,4.19,12.65,47.84626,-54.09684
2022-12-30 21:39:00+00:00,225.5131,4.18,12.65,47.84626,-54.09684
2022-12-30 21:49:00+00:00,224.5714,4.17,12.65,47.84626,-54.09684
2022-12-30 21:59:00+00:00,224.4831,4.16,12.65,47.84626,-54.09684
2022-12-30 22:09:00+00:00,219.8615,4.17,12.65,47.84626,-54.09684
2022-12-30 22:19:00+00:00,218.1464,4.16,12.65,47.84626,-54.09684
2022-12-30 22:29:00+00:00,217.2747,4.16,12.65,47.84626,-54.09684
2022-12-30 22:39:00+00:00,211.8897,4.19,12.65,47.84626,-54.09684
2022-12-30 22:49:00+00:00,213.0315,4.1,12.65,47.84626,-54.09684
2022-12-30 22:59:00+00:00,214.9848,4.1,12.65,47.84626,-54.09684
2022-12-30 23:09:00+00:00,211.2631,4.1,12.65,47.84626,-54.09684
2022-12-30 23:19:01+00:00,209.1281,4.08,12.65,47.84626,-54.09684
2022-12-30 23:29:01+00:00,212.2931,4.07,12.65,47.84626,-54.09684
2022-12-30 23:39:01+00:00,217.6631,4.09,12.65,47.84626,-54.09684
2022-12-30 23:49:01+00:00,217.1731,4.1,12.65,47.84626,-54.09684
2022-12-30 23:59:01+00:00,212.9181,4.1,12.65,47.84626,-54.09684
